Wind_Speed
14 13 12 10 10 9 9 8 7 7 6 6 5 5 6 6 6 6 7 7 8 8 8 9 9 9 10 10 11 11 11 12 12 12 13 13 13 13 13 13 13 14 14
16 14 13 12 11 11 10 10 9 9 8 8 7 7 7 7 8 8 9 9 9 10 10 11 11 11 11 12 12 13 13 13 14 14 14 15 15 15 15 15 15 15 15
17 16 15 14 13 12 12 11 10 9 9 9 9 9 9 9 9 10 10 11 11 11 12 13 13 13 14 14 14 15 15 15 15 15 15 16 16 16 16 16 16 17 17
19 18 16 15 14 14 13 12 12 11 10 10 10 10 10 10 11 11 12 12 13 13 14 14 15 15 16 16 16 17 16 16 17 17 17 17 17 17 18 18 18 18 18
20 19 18 17 16 15 14 14 13 13 12 12 12 12 12 12 12 13 13 13 14 14 15 15 16 16 17 17 18 18 18 19 19 19 19 19 19 19 19 19 19 19 19
21 20 19 18 18 17 16 15 15 14 14 14 14 13 14 14 14 14 14 14 15 15 15 16 16 17 17 18 19 19 20 20 20 21 21 20 20 20 21 21 21 21 21
22 21 20 19 19 18 17 17 16 16 16 16 16 15 15 16 15 15 16 16 16 16 16 17 17 18 18 19 19 20 20 21 21 22 22 22 22 22 22 23 22 22 22
24 22 21 20 20 19 18 18 17 17 17 17 17 17 17 17 17 17 17 17 18 18 18 18 19 19 20 20 21 21 22 22 22 23 23 24 24 24 24 24 25 24 25
25 24 22 22 21 20 20 19 18 18 18 17 18 18 18 18 18 19 19 19 19 19 19 20 20 21 21 22 23 23 24 24 24 24 25 25 25 25 26 26 26 26 26
27 25 24 23 22 22 21 20 20 19 19 18 18 19 19 20 20 20 20 20 21 21 22 22 22 23 23 24 24 24 25 25 26 26 27 27 27 27 27 27 27 27 27
28 27 26 24 23 23 22 21 21 20 20 20 20 20 21 21 21 21 22 22 23 23 24 24 24 24 25 25 26 26 27 27 28 28 28 28 28 28 28 28 28 28 28
29 28 27 26 25 24 23 23 22 22 22 22 22 21 22 22 22 23 23 24 25 25 25 25 26 26 26 27 27 28 28 29 29 29 29 29 29 29 30 30 30 30 30
30 29 28 27 26 25 24 24 23 23 23 24 24 23 23 23 23 24 25 25 26 26 26 26 27 27 27 28 28 28 29 29 29 28 28 29 29 30 30 30 31 31 31
31 30 29 28 27 26 26 25 25 25 25 25 25 25 24 24 25 25 25 26 26 27 27 27 28 28 28 28 28 28 29 28 28 28 28 28 29 30 30 30 31 31 31
31 31 29 29 28 27 26 26 26 26 26 27 26 26 26 25 26 26 26 27 27 28 28 28 28 29 29 29 29 28 28 28 28 28 29 29 29 29 29 30 30 31 31
30 29 29 28 28 27 27 27 28 27 27 28 28 28 27 27 27 28 28 28 28 28 29 29 30 29 29 29 29 29 29 29 29 30 30 29 29 30 30 30 31 31 32
31 29 28 28 28 28 29 29 29 29 28 28 28 28 29 29 29 29 29 29 29 29 30 30 30 30 30 30 30 31 31 31 30 31 31 31 31 31 31 32 33 33 34
32 31 30 30 30 30 30 30 30 30 29 29 29 30 30 30 30 30 30 30 31 31 30 30 30 30 31 31 32 32 32 33 33 32 32 32 32 33 33 34 35 34 35
32 31 31 31 32 31 31 31 31 31 30 30 30 30 30 30 30 30 30 30 31 31 30 31 31 31 32 32 33 33 33 33 33 33 34 34 34 34 35 35 35 35 35
32 31 31 32 32 32 32 32 32 32 32 31 31 31 31 31 31 30 30 31 31 31 32 32 32 32 33 33 34 34 34 34 34 35 35 35 35 35 36 36 36 36 36
31 31 31 32 32 32 33 33 33 33 33 32 32 32 32 32 32 31 31 32 32 32 32 33 33 33 34 34 35 35 35 35 35 35 36 36 36 36 37 37 37 37 37
32 32 32 32 32 32 33 33 33 33 33 33 33 33 34 33 33 33 33 33 33 33 34 34 34 35 35 36 36 36 36 36 36 36 36 37 37 37 37 37 37 37 37
32 33 33 33 33 33 34 34 35 35 34 35 34 34 35 35 34 35 35 35 35 36 35 35 36 36 36 37 38 38 39 39 38 38 38 38 38 38 37 37 37 37 37
32 33 33 33 34 34 34 35 36 36 35 35 36 36 36 36 36 36 36 36 35 36 37 37 38 38 39 40 40 40 40 40 40 40 40 39 38 38 38 38 37 37 37
31 32 33 33 34 34 34 35 36 36 36 37 36 36 36 36 36 36 37 37 37 38 39 39 40 40 41 42 42 42 42 42 42 42 40 40 39 39 39 39 39 39 39
31 32 33 34 35 35 35 35 36 36 37 37 37 36 36 36 36 37 39 39 39 40 41 41 42 42 43 43 43 43 44 43 43 43 41 40 40 40 40 40 40 40 40
Wind_Direction
238 236 236 240 242 244 245 248 248 254 261 266 274 286 297 302 305 307 310 312 313 314 313 312 311 310 309 307 305 302 299 297 295 293 291 290 288 287 286 286 285 285 285
236 235 237 241 244 246 247 251 254 258 262 266 271 279 286 292 298 302 303 304 304 305 306 307 305 305 305 305 304 302 299 296 294 293 291 290 288 287 286 286 285 285 285
236 237 238 241 244 247 249 253 257 259 263 266 270 275 280 285 290 295 297 299 300 300 301 301 300 299 299 299 299 299 297 295 293 291 290 289 288 287 286 285 285 285 285
235 236 238 240 242 246 250 254 257 258 262 267 270 275 278 282 286 291 294 295 297 297 298 297 297 297 296 295 295 295 295 294 293 291 290 288 287 287 286 285 285 284 284
234 236 237 239 242 246 250 254 257 259 262 267 270 273 276 280 283 287 290 292 294 296 296 297 297 297 296 295 295 294 293 292 292 290 289 288 286 285 285 285 285 284 283
233 235 237 239 243 246 250 253 257 260 262 266 269 272 275 278 281 284 287 290 293 294 296 296 297 297 296 296 295 294 293 292 291 290 288 287 286 285 284 284 284 284 283
233 234 237 240 242 245 250 254 258 260 264 266 268 271 275 277 280 283 285 288 290 292 293 294 295 296 297 297 296 295 294 292 290 289 288 287 286 284 283 282 282 283 283
233 234 236 240 242 245 249 254 257 261 264 266 268 272 275 277 279 281 284 286 288 289 291 291 292 293 294 295 295 294 293 291 289 287 287 286 286 285 283 282 282 281 282
232 234 237 240 243 246 250 254 257 260 264 267 269 273 275 276 278 280 283 284 285 287 288 290 291 292 292 293 293 292 291 290 288 287 287 287 286 285 284 283 282 281 281
232 235 238 241 244 247 250 253 256 259 262 267 271 272 275 276 278 280 282 283 284 285 286 288 289 290 290 292 292 292 291 290 288 287 287 287 286 285 284 283 283 282 281
233 236 239 241 244 247 250 253 256 259 262 267 270 272 273 275 277 279 281 282 282 284 285 286 287 288 290 291 291 292 292 290 289 287 287 286 286 285 284 283 282 282 282
233 235 238 241 244 247 249 253 256 259 262 266 269 271 273 275 278 279 280 280 281 283 284 285 286 288 289 290 291 291 291 291 290 289 288 287 286 285 284 283 283 282 281
232 235 238 240 243 247 250 254 258 259 263 265 267 269 271 274 277 278 279 280 281 282 284 285 286 287 288 289 291 292 291 291 291 290 288 286 286 285 284 283 283 281 280
233 234 237 240 242 247 252 257 259 260 263 265 267 269 271 274 276 278 279 280 281 282 283 284 286 287 288 289 290 290 289 289 290 291 289 288 287 286 285 284 283 282 281
233 235 239 242 244 248 253 257 259 260 262 264 266 267 270 273 275 277 278 279 281 282 283 284 285 287 288 288 289 289 289 289 289 290 289 288 287 287 286 285 284 283 282
236 237 239 243 245 248 251 255 258 261 262 264 265 267 270 274 276 277 279 280 282 282 283 284 285 286 286 287 288 289 289 288 289 289 289 286 286 286 286 286 286 284 282
238 241 240 243 246 249 252 255 258 260 261 263 266 268 271 274 276 277 279 281 282 282 283 283 284 284 285 286 287 288 288 288 288 288 288 286 284 285 286 286 285 283 281
238 241 243 243 247 251 253 256 257 259 261 264 267 269 271 273 275 276 278 280 281 281 282 283 283 284 285 286 287 287 288 287 286 288 287 286 285 285 285 285 284 283 282
238 241 244 245 248 251 253 256 260 261 262 265 268 269 271 273 275 277 278 278 280 281 282 282 283 284 285 286 287 287 287 287 287 287 286 285 285 285 285 286 285 283 282
240 242 244 247 249 252 253 257 260 262 264 266 267 269 272 274 275 276 277 278 279 281 282 282 283 284 286 286 286 286 286 286 286 286 285 285 285 285 286 286 285 284 283
243 245 246 248 250 253 255 257 261 262 264 265 267 269 272 274 274 276 277 278 280 282 281 282 283 284 285 285 285 285 286 286 285 286 285 284 285 285 286 286 286 284 283
246 248 250 251 252 254 256 258 260 263 264 266 267 269 271 273 274 276 278 279 280 281 282 282 281 282 283 284 284 284 284 285 285 285 286 285 285 284 285 285 285 285 284
248 250 252 253 254 255 257 259 262 263 266 268 268 270 271 273 275 276 277 278 278 279 281 281 281 282 283 283 283 283 283 284 285 285 286 286 285 285 284 285 285 285 284
250 252 253 254 255 257 259 260 262 264 266 270 271 270 271 273 275 275 277 278 278 279 280 281 282 282 282 282 282 283 283 284 284 284 285 285 284 284 284 285 284 283 283
251 253 254 255 257 259 260 261 263 265 267 270 272 271 272 273 275 276 276 278 279 280 281 282 283 283 283 282 283 283 284 284 285 285 284 284 283 283 283 285 284 283 283
254 256 257 257 260 261 262 263 265 267 268 270 272 273 274 275 276 277 277 278 279 280 281 281 282 282 283 283 283 283 283 284 284 283 283 283 282 282 283 284 284 284 283
Height
5863 5864 5865 5866 5867 5868 5869 5869 5870 5871 5871 5872 5872 5872 5873 5873 5873 5873 5874 5874 5874 5874 5874 5874 5874 5874 5874 5873 5873 5873 5873 5873 5873 5873 5873 5873 5872 5872 5872 5872 5872 5872 5871
5860 5861 5863 5864 5865 5866 5867 5868 5868 5869 5870 5870 5870 5871 5871 5872 5872 5872 5872 5872 5872 5872 5872 5872 5872 5872 5872 5872 5871 5871 5871 5871 5871 5870 5870 5870 5870 5870 5870 5869 5869 5869 5869
5857 5859 5860 5861 5863 5864 5865 5866 5866 5867 5868 5868 5869 5869 5870 5870 5870 5870 5870 5870 5870 5870 5870 5870 5870 5870 5870 5869 5869 5869 5869 5868 5868 5868 5868 5867 5867 5867 5867 5867 5866 5866 5866
5854 5856 5857 5859 5860 5861 5862 5863 5864 5865 5866 5866 5867 5867 5868 5868 5868 5868 5868 5868 5868 5868 5868 5868 5868 5867 5867 5867 5866 5866 5866 5865 5865 5865 5865 5864 5864 5864 5863 5863 5863 5863 5863
5851 5852 5854 5856 5857 5859 5860 5861 5862 5863 5863 5864 5864 5865 5865 5866 5866 5866 5866 5866 5866 5866 5866 5865 5865 5864 5864 5864 5863 5863 5863 5862 5862 5861 5861 5861 5860 5860 5860 5860 5859 5859 5859
5847 5849 5851 5853 5854 5855 5857 5858 5859 5860 5861 5861 5862 5862 5863 5863 5863 5863 5863 5863 5863 5863 5863 5862 5862 5861 5861 5860 5860 5859 5859 5858 5858 5857 5857 5857 5857 5856 5856 5856 5855 5855 5855
5843 5845 5847 5849 5850 5852 5854 5855 5856 5857 5857 5858 5859 5859 5860 5860 5860 5860 5860 5860 5860 5860 5860 5859 5859 5858 5858 5857 5856 5856 5855 5854 5854 5853 5853 5852 5852 5852 5851 5851 5851 5851 5850
5839 5841 5843 5845 5847 5848 5850 5851 5852 5853 5854 5855 5855 5856 5856 5856 5857 5857 5857 5857 5857 5856 5856 5856 5855 5855 5854 5853 5852 5852 5851 5850 5849 5849 5848 5848 5847 5847 5846 5846 5846 5846 5845
5834 5837 5839 5841 5843 5845 5846 5847 5849 5850 5850 5851 5852 5852 5853 5853 5853 5853 5853 5853 5853 5853 5852 5852 5851 5851 5850 5849 5848 5847 5846 5846 5845 5844 5843 5843 5842 5841 5841 5841 5840 5840 5840
5830 5833 5835 5837 5839 5840 5842 5843 5844 5846 5846 5847 5848 5848 5849 5849 5849 5849 5849 5849 5849 5848 5848 5848 5847 5846 5845 5844 5843 5842 5841 5840 5839 5839 5838 5837 5836 5836 5835 5835 5835 5834 5834
5825 5828 5831 5833 5835 5836 5838 5839 5840 5841 5842 5843 5843 5844 5844 5844 5844 5845 5845 5844 5844 5844 5843 5843 5842 5841 5840 5839 5838 5837 5836 5835 5834 5833 5832 5831 5831 5830 5829 5829 5829 5828 5828
5820 5823 5826 5828 5830 5832 5833 5834 5836 5837 5837 5838 5839 5839 5839 5840 5840 5840 5840 5839 5839 5839 5838 5837 5837 5836 5835 5834 5833 5832 5830 5829 5828 5827 5826 5825 5825 5824 5823 5823 5822 5822 5822
5815 5817 5820 5822 5825 5827 5828 5830 5831 5832 5832 5833 5834 5834 5835 5835 5835 5835 5834 5834 5834 5833 5833 5832 5831 5830 5829 5828 5827 5826 5824 5823 5822 5820 5819 5819 5818 5817 5817 5816 5816 5815 5815
5809 5812 5814 5816 5819 5821 5823 5824 5825 5826 5827 5828 5829 5829 5829 5829 5829 5829 5829 5828 5828 5827 5827 5826 5825 5825 5824 5822 5821 5820 5818 5817 5815 5814 5813 5812 5812 5811 5810 5809 5809 5808 5808
5803 5806 5808 5811 5813 5815 5817 5819 5820 5821 5822 5822 5823 5823 5824 5824 5824 5823 5823 5822 5822 5821 5821 5820 5819 5819 5817 5816 5815 5813 5812 5811 5809 5808 5807 5806 5805 5804 5803 5802 5802 5801 5800
5797 5800 5802 5805 5808 5810 5812 5813 5814 5815 5816 5816 5817 5817 5818 5818 5817 5817 5817 5816 5816 5815 5814 5814 5813 5812 5811 5810 5809 5807 5806 5804 5803 5802 5800 5799 5798 5797 5796 5795 5794 5794 5793
5791 5794 5796 5799 5802 5804 5806 5807 5807 5808 5809 5810 5811 5811 5811 5811 5811 5811 5810 5810 5809 5808 5808 5807 5806 5806 5805 5804 5802 5801 5799 5798 5796 5795 5794 5793 5792 5791 5789 5788 5787 5786 5785
5785 5788 5790 5793 5796 5798 5800 5800 5801 5802 5803 5803 5804 5805 5805 5805 5804 5804 5804 5803 5802 5802 5801 5800 5800 5799 5798 5797 5796 5794 5793 5791 5790 5788 5787 5786 5785 5783 5782 5781 5779 5778 5777
5779 5782 5784 5787 5790 5791 5793 5794 5794 5795 5796 5797 5797 5798 5798 5798 5798 5797 5797 5796 5795 5795 5794 5793 5793 5792 5791 5790 5788 5787 5785 5784 5782 5781 5780 5778 5777 5776 5775 5773 5771 5770 5769
5773 5776 5779 5781 5783 5785 5786 5787 5788 5788 5789 5790 5790 5791 5791 5791 5791 5790 5790 5789 5788 5787 5787 5786 5785 5784 5783 5782 5781 5779 5778 5776 5775 5773 5772 5771 5769 5768 5766 5765 5763 5761 5760
5767 5770 5772 5775 5776 5778 5779 5780 5781 5782 5782 5783 5783 5784 5784 5783 5783 5783 5783 5782 5781 5780 5779 5778 5778 5777 5776 5774 5773 5772 5770 5768 5767 5765 5764 5762 5761 5759 5758 5756 5754 5753 5751
5762 5764 5766 5768 5770 5771 5772 5773 5774 5775 5775 5776 5776 5776 5776 5776 5776 5776 5775 5774 5774 5773 5771 5771 5770 5769 5767 5766 5764 5763 5762 5761 5759 5757 5755 5754 5752 5751 5749 5747 5745 5744 5742
5756 5758 5760 5761 5762 5764 5765 5766 5767 5768 5768 5768 5769 5769 5769 5768 5768 5767 5767 5766 5765 5765 5763 5762 5761 5760 5758 5757 5755 5754 5753 5751 5750 5749 5746 5745 5743 5741 5740 5738 5736 5735 5733
5750 5752 5753 5754 5755 5756 5758 5759 5760 5760 5760 5761 5761 5761 5761 5760 5760 5759 5758 5758 5757 5756 5755 5753 5752 5751 5749 5748 5746 5744 5743 5741 5740 5739 5737 5735 5734 5732 5730 5728 5727 5725 5724
5744 5745 5746 5747 5748 5749 5751 5751 5752 5752 5752 5752 5752 5752 5752 5752 5751 5751 5750 5749 5748 5747 5745 5744 5743 5741 5739 5738 5736 5734 5732 5731 5729 5728 5727 5726 5724 5722 5720 5719 5717 5715 5714
5738 5739 5740 5741 5742 5742 5743 5744 5744 5744 5745 5745 5744 5744 5744 5743 5742 5742 5741 5740 5738 5737 5736 5734 5733 5731 5729 5727 5725 5723 5722 5720 5719 5717 5716 5715 5714 5712 5710 5708 5707 5705 5703